IRIDIUM 130 (43073 NORAD) Tracking and Keplerian Element Data

This shows tracking and keplerian element data for the satellite.

Feedback or suggestion? Click here.




ElementValue
Catalog43073
NameIRIDIUM 130
Epoch Orbit19685
Epoch Day269.08689101
Epoch Year2021
RAAN323.0706
Inclination86.3981
Eccentricity0.0002058
Argument of Perigee89.1832
Mean Anonmoly270.96
Mean Motion14.34216132
Decay Rate1.07E-06
L11 43073U 17083D 21269.08689101 .00000107 00000-0 31093-4 0 9997
L22 43073 86.3981 323.0706 0002058 89.1832 270.9600 14.34216132196851

Live tracking and technical data element details for IRIDIUM 130 (NORAD 43073). IRIDIUM 130 can be tracked NOW for your location showing map with azimuth and elevation plus other details from your city location.

Track the satellite on the map from your city or location and see movement details for azimuth, elevation, latitude, longitude, range, height, and movement on the map or in text.







IsCatalogInMostPopularTable: catalog: 43073, numindb: 559
Update: records affected: 1



GetName: 43073 IRIDIUM 130

Hit Count: updated at: Mon, 27 Sep 2021 00:58:54 GMT